Location: Darmstadt
(49.8706°N, 8.6494°E)
Time: 06:56:02
(UTC+01:00)

CORIOLIS - Pass Details

Date: 31 October 2020
Orbit: 819 x 838 km, 98.7° (Epoch: 03 December)

Event Time Altitude Azimuth Distance (km) Brightness Sun altitude
Rises 17:51:42 0° 165° (SSE) 3,338 7.3 -8.2°
Reaches altitude 10° 17:54:02 10° 166° (SSE) 2,411 6.6 -8.6°
Maximum altitude 17:59:23 83° 255° (WSW) 835 4.3 -9.4°
Drops below altitude 10° 18:04:48 10° 344° (NNW) 2,437 6.7 -10.3°
Sets 18:07:10 0° 345° (NNW) 3,377 7.4 -10.7°
